AirNav   GEt a FREE Bose Revolve Bluetooth Speaker
 
 874 users online  

74OR Stan Jost Airport
Newberg, Oregon, USA

GOING TO NEWBERG?


FAA INFORMATION EFFECTIVE 06 DECEMBER 2018

Location

FAA Identifier: 74OR
Lat/Long: 45-19-25.4220N / 123-01-08.3700W
45-19.423700N / 123-01.139500W
45.3237283 / -123.0189917
(estimated)
Elevation: 180 ft. / 55 m (estimated)
Variation: 20E (1980)
From city: 3 miles NW of NEWBERG, OR
Time zone: UTC -8 (UTC -7 during Daylight Saving Time)
Zip code: 97132

Airport Operations

Airport use: Private use. Permission required prior to landing
Activation date: 12/1986
Control tower: no
ARTCC: SEATTLE CENTER
FSS: MC MINNVILLE FLIGHT SERVICE STATION
Attendance: IREG IREG
Wind indicator: yes, 2 WIND INDICATORS.
Segmented circle: no

Airport Communications

WX ASOS at MMV (9 nm SW): 135.675 (503-434-9153)
WX ASOS at UAO (11 nm SE): PHONE 503-678-3011
WX ASOS at HIO (13 nm N): PHONE 503-640-2984

Nearby radio navigation aids

VOR radial/distance  VOR name  Freq  Var
UBGr203/2.5NEWBERG VOR/DME117.4021E
BTGr194/31.1BATTLE GROUND VORTAC116.6021E

 
NDB name  Hdg/Dist  Freq  Var  ID
BANKS160/18.435616EPND .--. -. -..

Airport Services

Runway Information

Runway 15/33

Dimensions: 1300 x 80 ft. / 396 x 24 m
Surface: turf
RUNWAY 15  RUNWAY 33
Traffic pattern: leftleft
Obstructions: 15 ft. trees, 50 ft. from runwaynone

Airport Ownership and Management from official FAA records

Ownership: Privately-owned
Owner: STAN JOST
15125 NE FLYING FEATHERLANE
NEWBERG, OR 97132
Phone 503-554-9112
Manager: STAN JOST
15125 NE FLYING FEATHERLANE
NEWBERG, OR 97132
Phone 503-554-9112

Airport Operational Statistics

Aircraft based on the field: 1
Single engine airplanes: 1
    

Additional Remarks

FOR CD CTC PORTLAND APCH AT 503-493-7545.

Instrument Procedures

There are no published instrument procedures at 74OR.

Some nearby airports with instrument procedures:

KMMV - Mc Minnville Municipal Airport (9 nm SW)
KUAO - Aurora State Airport (11 nm SE)
KHIO - Portland-Hillsboro Airport (13 nm N)
KVUO - Pearson Field Airport (23 nm NE)
KPDX - Portland International Airport (24 nm NE)
 
Loc | Ops | Rwys | IFR | FBO | Links
Com | Nav | Svcs | Stats | Notes


 
Area around 74OR (Stan Jost Airport)
 
Road maps at: MapQuest Bing Google
 
Aerial photo
WARNING: Photo may not be current or correct
Aerial photo of 74OR (Stan Jost Airport)
Do you have a better or more recent aerial photo of Stan Jost Airport that you would like to share? If so, please send us your photo.

 
Sectional chart

 
Airport distance calculator
Flying to Stan Jost Airport? Find the distance to fly.

From to 74OR

Sunrise and sunset
Times for 09-Dec-2018
 Local
(UTC-8)
 Zulu
(UTC)
Morning civil twilight07:0715:07
Sunrise07:4115:41
Sunset16:2800:28
Evening civil twilight17:0201:02

Current date and time
Zulu (UTC)  10-Dec-2018 01:21:09
Local (UTC-8)  09-Dec-2018 17:21:09
 
METAR
KMMV 
9nm SW 
100053Z AUTO 00000KT 5SM -RA BR BKN012 OVC023 03/03 A3016 RMK AO2 SLP214 P0005 T00330033
KUAO 
12nm E 
100053Z 35004KT 3SM -RA BR BKN005 BKN013 OVC029 04/03 A3017 RMK AO2 SLP217 P0002 T00440033
KHIO 
14nm N 
100053Z 30003KT 2SM -RA BR BKN010 OVC028 03/02 A3016 RMK AO2 SLP215 P0006 T00280017
TAF
KUAO 
12nm E 
091903Z 0919/1018 03005KT 5SM -RA OVC050 FM092100 VRB04KT 5SM -RA BR BKN025 OVC040 FM100100 16007KT 5SM -RA BKN015 OVC025 FM100400 18006KT 6SM -RA BR OVC015 FM101200 19004KT P6SM BKN012 OVC025
KHIO 
14nm N 
092157Z 0922/1018 15005KT 3SM -RA BR BKN008 OVC020 FM100600 18004KT 4SM -SHRA BR OVC007 FM101200 VRB02KT 2SM BR OVC005
NOTAMs
Click for the latest NOTAMs
NOTAMs are issued by the DoD/FAA and will open in a separate window not controlled by AirNav.

 

 
 

Would you like to see your business listed on this page?

 If your business provides an interesting product or service to pilots, flight crews, aircraft, or users of the Stan Jost Airport, you should consider listing it here.  To start the listing process, click on the button below
 
Add a business
 

Other Pages about Stan Jost Airport

Update a link
 
Copyright © AirNav, LLC. All rights reserved. Privacy Policy  Contact